Weather in Mokren'kiy

Russia / Kursk Oblast     51°17′20″N   36°40′27″E
temp.,
°C
wind,
m/s
gust,
m/s
humid.,
%
clouds,
%
prec.,
mm/h
press.,
hPa
HPBL,
m
4 august, wed
wed400:00+17n347460 0.0 101567
03:00+16ne347556 0.0 101587
06:00+16nw127592 0.0 101647
09:00+20wnw235819 0.0 1017591
12:00+25wnw554099 0.0 10172548
15:00+25nw5532100 0.0 10162479
18:00+24nw55325 0.0 10172338
21:00+17ne34526 0.0 101848
5 august, thu
thu500:00+15ene336018 0.0 101826
03:00+14se2263100 0.0 101812
06:00+15se336012 0.0 101852
09:00+23sse4540100 0.0 1018570
12:00+27s342980 0.0 10172389
15:00+29s352694 0.0 10142830
18:00+28s3630100 0.0 1013431
21:00+22ne4753100 0.0 1014173
6 august, fri
fri600:00+21sse35457 0.0 1013104
03:00+19sse5135088 0.0 1012229
06:00+18sse4115197 0.0 1012200
09:00+26sse6934100 0.0 1011551
12:00+32s792438 0.0 10102053
15:00+34s78225 0.0 10082966
18:00+34s5827100 0.0 10072536
21:00+25se4654100 1.1 100881
7 august, sat
sat700:00+23sse4752100 0.1 1008103
03:00+22sse5154132 0.1 1008327
06:00+19se41058100 0.2 1009183
09:00+23sse51060100 0.4 1009430
12:00+27se6847100 0.6 1009878
15:00+28ene2545100 2.0 1008430
18:00+27ene5940100 0.0 1006295
21:00+24ssw1146100 0.0 100714
8 august, sun
sun800:00+21sw4764100 0.1 1010149
03:00+21ne3667100 0.1 1009126
06:00+20nnw4873100 0.0 1009193
09:00+22nne51067100 0.0 1009361
12:00+27n564698 0.0 10091175
15:00+29nw664052 0.0 10101756
18:00+27nw775019 0.0 10111214
21:00+20nw611840 0.1 1014393